Retour au catalogue

STARLINK-30066

ActifCommunicationsVLEO
NORAD 56704·PAYLOAD·🇺🇸 United States

Lancé May 19, 2023 depuis Cape Canaveral Space Force Station

Loading…

Prochains Passages (prochaines 24 heures)

TLE

FraisSource: CelesTrak SupGP

Époque: Sep 15, 2026, 03:11 UTC

1 56704C 23067S   26258.13312500 -.00004765  00000+0 -17251-3 0  2588
2 56704  43.0027 280.9840 0001586 273.2708 139.9388 15.27591385    18

Suivez STARLINK-30066 en temps réel avec AllMySat

Download on the App Store